Location: Bartshausen
(51.8454°N, 9.8167°E)
Time: 06:07:55
(UTC+00:00)

Cosmos 1943 Rocket - Pass Details

Date: 08 November 2025
Orbit: 812 x 841 km, 71.0° (Epoch: 11 December)

Event Time Altitude Azimuth Distance (km) Brightness Sun altitude
Exits shadow 05:47:56 - 310° (NW) 2,787 4.3 -6.5°
Reaches altitude 10° 05:49:19 10° 300° (WNW) 2,420 3.9 -6.3°
Maximum altitude 05:52:46 17° 261° (W) 1,953 3.6 -5.8°
Drops below altitude 10° 05:56:12 10° 222° (SW) 2,401 4.4 -5.3°
Sets 05:59:24 0° 203° (SSW) 3,325 5.3 -4.9°
